| Date | Temp | Humidity | Rainfall | Dew Point | Wind Direction | Wind Speed | Wind Pressure | Condition | Visibility |
|---|---|---|---|---|---|---|---|---|---|
| 2025-05-12 07:02:21 | 27 | 88 | 0 | 25 | 190 | 7.6 | 1008 | Cloudy | 15 KM |
| 2025-05-12 06:04:21 | 26 | 89 | 0 | 24 | 210 | 3.8 | 1008 | Cloudy | 10 KM |
| 2025-05-12 03:59:33 | 27 | 89 | 25 | 220 | 3.8 | 1008 | Cloudy | 10 KM | |
| 2025-05-12 03:01:18 | 27 | 88 | 0 | 25 | 240 | 3.8 | 1008 | Cloudy | 10 KM |
| 2025-05-12 01:58:37 | 27 | 91 | 25 | 160 | 3.8 | 1008 | Partly Cloudy (Night) | 10 KM | |
| 2025-05-12 00:59:21 | 27 | 90 | 25 | 210 | 9.5 | 1009 | Partly Cloudy (Night) | 10 KM | |
| 2025-05-11 23:58:36 | 27 | 88 | 25 | 110 | 1.9 | 1009 | Partly Cloudy (Night) | 10 KM | |
| 2025-05-11 23:00:16 | 28 | 85 | 25 | 160 | 1.9 | 1009 | Partly Cloudy (Night) | 10 KM | |
| 2025-05-11 21:57:08 | 28 | 76 | 24 | 190 | 1.9 | 1009 | Partly Cloudy (Night) | 10 KM | |
| 2025-05-11 21:03:18 | 28 | 79 | 0.00 | 24 | 080 | 5.7 | 1008 | Partly Cloudy (Night) | 10KM |
| 2025-05-11 20:01:03 | 29 | 74 | 0.00 | 24 | 090 | 3.8 | 1007 | Partly Cloudy (Night) | 10KM |
| 2025-05-11 19:00:43 | 30 | 70 | 0.00 | 24 | 010 | 3.8 | 1007 | Partly Cloudy (Night) | 10KM |
| 2025-05-11 18:00:41 | 30 | 67 | 0.00 | 23 | 300 | 9.5 | 1006 | Partly Cloudy (Day) | 15KM |
| 2025-05-11 17:02:22 | 30 | 64 | 0.0 | 23 | 290 | 9.5 | 1006 | Partly Cloudy (Day) | 20 KM |
| 2025-05-11 16:03:02 | 31 | 60 | 0.0 | 22 | 270 | 9.5 | 1006 | Partly Cloudy (Day) | 10 KM |
| 2025-05-11 15:02:05 | 31 | 68 | 0.0 | 24 | 200 | 7.6 | 1006 | Distant showers | 15 KM |
| 2025-05-11 14:04:01 | 32 | 65 | 0.0 | 24 | 310 | 11.4 | 1007 | Thunderstorm | 15 KM |
| 2025-05-11 12:59:50 | 31 | 68 | 24 | 330 | 13.3 | 1008 | Distant showers | 10 KM | |
| 2025-05-11 12:01:33 | 30 | 71 | 25 | 010 | 11.4 | 1009 | Thundershowers | 10 KM | |
| 2025-05-11 11:02:19 | 30 | 74 | 24 | 010 | 13.3 | 1010 | Thundershowers | 10 KM | |
| 2025-05-11 09:58:58 | 30 | 71 | 24 | 090 | 11.4 | 1010 | Thunderstorm | 20 KM | |
| 2025-05-11 08:56:43 | 29 | 76 | 24 | 120 | 3.8 | 1010 | Thunderstorm | 15 KM | |
| 2025-05-11 08:02:06 | 28 | 79 | 24 | 180 | 3.8 | 1009 | Thunderstorm | 15 km | |
| 2025-05-11 06:59:51 | 26 | 89 | 24 | 230 | 1.9 | 1008 | Thunderstorm | 10 Km | |
| 2025-05-11 05:59:29 | 26 | 90 | 24 | 230 | 5.7 | 1008 | Thunderstorm | 10 km |